COSMOS 2221

Last updated on Fri Jul 10 2026 00:02:13 GMT+0000 (Coordinated Universal Time)

1 22236U 92080A 26189.93593368 .00001189 00000+0 10189-3 0 9996 2 22236 82.5039 162.9268 0015317 139.4809 220.7557 14.96592175798921
UTC large
Height (km)
Speed (km/s)
/
Latitude / Longitude
Inclination (degrees)
Orbital Period (minutes)
Azimuth
Elevation
Range (km)
Doppler Factor

Next 0 passes for location: London (51.5072 / 0.1276)

No passes found over London.
COSMOS 2221